Time,TemperatureF,DewpointF,PressureIn,WindDirection,WindDirectionDegrees,WindSpeedMPH,WindSpeedGustMPH,Humidity,HourlyPrecipIn,Conditions,Clouds,dailyrainin,SoftwareType,DateUTC
2013-02-12 00:00:00,50.7,45.7,29.98,East,94,4.0,7.0,83,0.00,,,0.02,VWS V14.01,2013-02-12 06:00:00,
2013-02-12 00:05:00,50.6,46.0,29.98,ENE,70,3.0,8.0,84,0.00,,,0.00,VWS V14.01,2013-02-12 06:05:00,
2013-02-12 00:10:00,50.4,45.8,29.98,East,94,8.0,11.0,84,0.00,,,0.00,VWS V14.01,2013-02-12 06:10:00,
2013-02-12 00:15:00,50.2,45.9,29.98,East,87,6.0,10.0,85,0.00,,,0.00,VWS V14.01,2013-02-12 06:15:00,
2013-02-12 00:20:00,50.1,45.8,29.97,East,93,5.0,7.0,85,0.00,,,0.00,VWS V14.01,2013-02-12 06:20:00,
2013-02-12 00:25:00,49.9,45.9,29.97,East,82,6.0,8.0,86,0.00,,,0.00,VWS V14.01,2013-02-12 06:25:00,
2013-02-12 00:30:00,49.8,46.1,29.97,ENE,72,3.0,5.0,87,0.00,,,0.00,VWS V14.01,2013-02-12 06:30:00,
2013-02-12 00:35:00,49.7,46.0,29.97,East,88,3.0,6.0,87,0.00,,,0.00,VWS V14.01,2013-02-12 06:35:00,
2013-02-12 00:40:00,49.6,45.9,29.97,ENE,78,4.0,6.0,87,0.00,,,0.00,VWS V14.01,2013-02-12 06:40:00,
2013-02-12 00:45:00,49.6,45.9,29.97,East,85,6.0,7.0,87,0.00,,,0.00,VWS V14.01,2013-02-12 06:45:00,
2013-02-12 00:50:00,49.5,46.1,29.97,East,85,3.0,6.0,88,0.00,,,0.00,VWS V14.01,2013-02-12 06:50:00,
2013-02-12 00:55:00,49.5,46.1,29.97,East,87,4.0,6.0,88,0.00,,,0.00,VWS V14.01,2013-02-12 06:55:00,
2013-02-12 01:00:00,49.4,46.0,29.97,ENE,75,2.0,5.0,88,0.00,,,0.00,VWS V14.01,2013-02-12 07:00:00,
2013-02-12 01:05:00,49.3,45.9,29.97,ENE,68,3.0,3.0,88,0.00,,,0.00,VWS V14.01,2013-02-12 07:05:00,
2013-02-12 01:10:00,49.3,46.2,29.97,ENE,78,3.0,5.0,89,0.00,,,0.00,VWS V14.01,2013-02-12 07:10:00,
2013-02-12 01:15:00,49.2,46.1,29.96,ENE,59,4.0,5.0,89,0.00,,,0.00,VWS V14.01,2013-02-12 07:15:00,
2013-02-12 01:20:00,49.1,46.0,29.97,NE,35,2.0,4.0,89,0.00,,,0.00,VWS V14.01,2013-02-12 07:20:00,
2013-02-12 01:25:00,49.0,45.9,29.96,NE,44,2.0,4.0,89,0.00,,,0.00,VWS V14.01,2013-02-12 07:25:00,
2013-02-12 01:30:00,48.9,46.1,29.95,ENE,68,3.0,5.0,90,0.00,,,0.00,VWS V14.01,2013-02-12 07:30:00,
2013-02-12 01:35:00,48.8,46.0,29.95,NE,35,3.0,5.0,90,0.00,,,0.00,VWS V14.01,2013-02-12 07:35:00,
2013-02-12 01:40:00,48.8,46.0,29.95,NE,54,1.0,3.0,90,0.00,,,0.00,VWS V14.01,2013-02-12 07:40:00,
2013-02-12 01:45:00,48.7,45.9,29.95,NE,53,2.0,3.0,90,0.00,,,0.00,VWS V14.01,2013-02-12 07:45:00,
2013-02-12 01:50:00,48.7,46.2,29.95,ENE,61,2.0,5.0,91,0.00,,,0.00,VWS V14.01,2013-02-12 07:50:00,
2013-02-12 01:55:00,48.7,46.2,29.95,ENE,64,0.0,3.0,91,0.00,,,0.00,VWS V14.01,2013-02-12 07:55:00,
2013-02-12 02:00:00,48.7,46.2,29.95,ENE,64,0.0,1.0,91,0.00,,,0.00,VWS V14.01,2013-02-12 08:00:00,
2013-02-12 02:05:00,48.7,46.2,29.95,NE,56,0.0,1.0,91,0.00,,,0.00,VWS V14.01,2013-02-12 08:05:00,
2013-02-12 02:10:00,48.7,46.2,29.94,NE,36,2.0,2.0,91,0.00,,,0.00,VWS V14.01,2013-02-12 08:10:00,
2013-02-12 02:15:00,48.7,46.2,29.94,NE,40,2.0,4.0,91,0.00,,,0.00,VWS V14.01,2013-02-12 08:15:00,
2013-02-12 02:20:00,48.7,46.2,29.94,NE,46,2.0,3.0,91,0.00,,,0.00,VWS V14.01,2013-02-12 08:20:00,
2013-02-12 02:25:00,48.7,46.2,29.94,ENE,71,2.0,4.0,91,0.00,,,0.00,VWS V14.01,2013-02-12 08:25:00,
2013-02-12 02:30:00,48.6,46.1,29.94,ENE,71,3.0,4.0,91,0.00,,,0.00,VWS V14.01,2013-02-12 08:30:00,
2013-02-12 02:35:00,48.6,46.1,29.93,ENE,61,3.0,5.0,91,0.00,,,0.00,VWS V14.01,2013-02-12 08:35:00,
2013-02-12 02:40:00,48.7,46.5,29.93,ENE,66,3.0,4.0,92,0.00,,,0.00,VWS V14.01,2013-02-12 08:40:00,
2013-02-12 02:45:00,48.6,46.1,29.93,East,92,2.0,4.0,91,0.00,,,0.00,VWS V14.01,2013-02-12 08:45:00,
2013-02-12 02:49:00,48.6,46.4,29.92,ENE,78,3.0,4.0,92,0.00,,,0.00,VWS V14.01,2013-02-12 08:49:00,
2013-02-12 02:50:00,48.6,46.4,29.92,East,80,2.0,4.0,92,0.00,,,0.00,VWS V14.01,2013-02-12 08:50:00,
2013-02-12 02:54:00,48.6,46.4,29.92,East,85,2.0,3.0,92,0.00,,,0.00,VWS V14.01,2013-02-12 08:54:00,
2013-02-12 02:55:00,48.6,46.4,29.92,East,85,2.0,3.0,92,0.00,,,0.00,VWS V14.01,2013-02-12 08:55:00,
2013-02-12 02:59:00,48.6,46.4,29.92,East,87,2.0,4.0,92,0.00,,,0.00,VWS V14.01,2013-02-12 08:59:00,
2013-02-12 03:00:00,48.6,46.4,29.92,East,90,1.0,4.0,92,0.00,,,0.00,VWS V14.01,2013-02-12 09:00:00,
2013-02-12 03:04:00,48.6,46.4,29.92,ENE,77,3.0,3.0,92,0.00,,,0.00,VWS V14.01,2013-02-12 09:04:00,
2013-02-12 03:05:00,48.6,46.4,29.92,ENE,77,2.0,3.0,92,0.00,,,0.00,VWS V14.01,2013-02-12 09:05:00,
2013-02-12 03:09:00,48.6,46.4,29.91,ENE,77,5.0,6.0,92,0.00,,,0.00,VWS V14.01,2013-02-12 09:09:00,
2013-02-12 03:10:00,48.6,46.4,29.91,ENE,64,4.0,6.0,92,0.00,,,0.00,VWS V14.01,2013-02-12 09:10:00,
2013-02-12 03:14:00,48.6,46.4,29.91,ESE,104,3.0,6.0,92,0.00,,,0.00,VWS V14.01,2013-02-12 09:14:00,
2013-02-12 03:15:00,48.7,46.5,29.91,ESE,104,2.0,6.0,92,0.00,,,0.00,VWS V14.01,2013-02-12 09:15:00,
2013-02-12 03:19:00,48.7,46.5,29.91,East,99,2.0,4.0,92,0.00,,,0.00,VWS V14.01,2013-02-12 09:19:00,
2013-02-12 03:20:00,48.7,46.5,29.91,East,98,2.0,4.0,92,0.00,,,0.00,VWS V14.01,2013-02-12 09:20:00,
2013-02-12 03:24:00,48.7,46.5,29.90,East,94,3.0,7.0,92,0.00,,,0.00,VWS V14.01,2013-02-12 09:24:00,
2013-02-12 03:25:00,48.7,46.5,29.90,East,98,4.0,7.0,92,0.00,,,0.00,VWS V14.01,2013-02-12 09:25:00,
2013-02-12 03:29:00,48.6,46.4,29.90,ESE,102,3.0,6.0,92,0.00,,,0.00,VWS V14.01,2013-02-12 09:29:00,
2013-02-12 03:30:00,48.7,46.5,29.90,East,101,5.0,6.0,92,0.00,,,0.00,VWS V14.01,2013-02-12 09:30:00,
2013-02-12 03:34:00,48.7,46.5,29.89,East,90,4.0,7.0,92,0.00,,,0.00,VWS V14.01,2013-02-12 09:34:00,
2013-02-12 03:35:00,48.7,46.5,29.89,East,101,2.0,7.0,92,0.00,,,0.00,VWS V14.01,2013-02-12 09:35:00,
2013-02-12 03:39:00,48.7,46.5,29.90,East,92,3.0,7.0,92,0.00,,,0.00,VWS V14.01,2013-02-12 09:39:00,
2013-02-12 03:40:00,48.7,46.5,29.90,East,92,1.0,7.0,92,0.00,,,0.00,VWS V14.01,2013-02-12 09:40:00,
2013-02-12 03:44:00,48.7,46.5,29.90,ENE,78,3.0,4.0,92,0.00,,,0.00,VWS V14.01,2013-02-12 09:44:00,
2013-02-12 03:45:00,48.7,46.5,29.90,ENE,78,2.0,4.0,92,0.00,,,0.00,VWS V14.01,2013-02-12 09:45:00,
2013-02-12 03:49:00,48.7,46.5,29.89,East,91,1.0,4.0,92,0.00,,,0.00,VWS V14.01,2013-02-12 09:49:00,
2013-02-12 03:50:00,48.7,46.5,29.89,East,94,3.0,4.0,92,0.00,,,0.00,VWS V14.01,2013-02-12 09:50:00,
2013-02-12 03:54:00,48.7,46.5,29.89,East,97,4.0,5.0,92,0.00,,,0.00,VWS V14.01,2013-02-12 09:54:00,
2013-02-12 03:55:00,48.7,46.5,29.89,East,97,5.0,6.0,92,0.00,,,0.00,VWS V14.01,2013-02-12 09:55:00,
2013-02-12 03:59:00,48.7,46.5,29.89,ESE,107,5.0,8.0,92,0.00,,,0.00,VWS V14.01,2013-02-12 09:59:00,
2013-02-12 04:00:00,48.7,46.5,29.89,East,99,6.0,8.0,92,0.00,,,0.00,VWS V14.01,2013-02-12 10:00:00,
2013-02-12 04:04:00,48.7,46.5,29.89,ESE,118,3.0,6.0,92,0.00,,,0.00,VWS V14.01,2013-02-12 10:04:00,
2013-02-12 04:05:00,48.7,46.5,29.89,ESE,104,2.0,6.0,92,0.00,,,0.00,VWS V14.01,2013-02-12 10:05:00,
2013-02-12 04:09:00,48.8,46.6,29.89,East,84,2.0,3.0,92,0.00,,,0.00,VWS V14.01,2013-02-12 10:09:00,
2013-02-12 04:10:00,48.8,46.6,29.89,East,84,1.0,3.0,92,0.00,,,0.00,VWS V14.01,2013-02-12 10:10:00,
2013-02-12 04:14:00,48.8,46.6,29.88,East,94,2.0,4.0,92,0.00,,,0.00,VWS V14.01,2013-02-12 10:14:00,
2013-02-12 04:15:00,48.8,46.6,29.88,East,88,2.0,4.0,92,0.00,,,0.00,VWS V14.01,2013-02-12 10:15:00,
2013-02-12 04:19:00,48.8,46.9,29.88,East,94,4.0,5.0,93,0.00,,,0.00,VWS V14.01,2013-02-12 10:19:00,
2013-02-12 04:20:00,48.8,46.9,29.88,East,90,4.0,5.0,93,0.00,,,0.00,VWS V14.01,2013-02-12 10:20:00,
2013-02-12 04:24:00,48.8,46.9,29.87,ENE,70,5.0,5.0,93,0.00,,,0.00,VWS V14.01,2013-02-12 10:24:00,
2013-02-12 04:25:00,48.8,46.9,29.87,East,97,5.0,5.0,93,0.00,,,0.00,VWS V14.01,2013-02-12 10:25:00,
2013-02-12 04:29:00,48.8,46.9,29.87,East,90,3.0,5.0,93,0.00,,,0.00,VWS V14.01,2013-02-12 10:29:00,
2013-02-12 04:30:00,48.8,46.9,29.87,East,91,3.0,5.0,93,0.00,,,0.00,VWS V14.01,2013-02-12 10:30:00,
2013-02-12 04:34:00,48.9,47.0,29.87,ESE,104,2.0,6.0,93,0.00,,,0.00,VWS V14.01,2013-02-12 10:34:00,
2013-02-12 04:35:00,48.9,47.0,29.87,ESE,112,4.0,6.0,93,0.00,,,0.00,VWS V14.01,2013-02-12 10:35:00,
2013-02-12 04:39:00,48.9,47.0,29.86,East,90,1.0,4.0,93,0.00,,,0.00,VWS V14.01,2013-02-12 10:39:00,
2013-02-12 04:40:00,48.9,47.0,29.86,East,97,5.0,5.0,93,0.00,,,0.00,VWS V14.01,2013-02-12 10:40:00,
2013-02-12 04:44:00,48.9,47.0,29.87,East,98,2.0,5.0,93,0.00,,,0.00,VWS V14.01,2013-02-12 10:44:00,
2013-02-12 04:45:00,48.9,47.0,29.87,ESE,106,4.0,5.0,93,0.00,,,0.00,VWS V14.01,2013-02-12 10:45:00,
2013-02-12 04:49:00,48.9,47.0,29.86,ENE,76,5.0,5.0,93,0.00,,,0.00,VWS V14.01,2013-02-12 10:49:00,
2013-02-12 04:50:00,48.9,47.0,29.86,East,94,6.0,6.0,93,0.00,,,0.00,VWS V14.01,2013-02-12 10:50:00,
2013-02-12 04:54:00,49.0,47.1,29.86,East,91,1.0,7.0,93,0.00,,,0.00,VWS V14.01,2013-02-12 10:54:00,
2013-02-12 04:55:00,49.0,47.1,29.86,SE,130,3.0,7.0,93,0.00,,,0.00,VWS V14.01,2013-02-12 10:55:00,
2013-02-12 04:59:00,49.0,47.1,29.87,ESE,104,6.0,6.0,93,0.00,,,0.00,VWS V14.01,2013-02-12 10:59:00,
2013-02-12 05:00:00,49.0,47.1,29.87,ESE,108,3.0,6.0,93,0.00,,,0.00,VWS V14.01,2013-02-12 11:00:00,
2013-02-12 05:04:00,49.0,47.1,29.87,East,85,0.0,4.0,93,0.00,,,0.00,VWS V14.01,2013-02-12 11:04:00,
2013-02-12 05:05:00,49.0,47.1,29.87,East,85,0.0,4.0,93,0.00,,,0.00,VWS V14.01,2013-02-12 11:05:00,
2013-02-12 05:09:00,49.0,47.1,29.88,NE,45,0.0,2.0,93,0.00,,,0.00,VWS V14.01,2013-02-12 11:09:00,
2013-02-12 05:10:00,49.0,47.1,29.88,NE,45,0.0,2.0,93,0.00,,,0.00,VWS V14.01,2013-02-12 11:10:00,
2013-02-12 05:14:00,49.1,47.2,29.87,ENE,57,0.0,2.0,93,0.00,,,0.00,VWS V14.01,2013-02-12 11:14:00,
2013-02-12 05:15:00,49.1,47.2,29.87,ENE,57,0.0,2.0,93,0.00,,,0.00,VWS V14.01,2013-02-12 11:15:00,
2013-02-12 05:19:00,49.1,47.2,29.87,ENE,57,0.0,1.0,93,0.00,,,0.00,VWS V14.01,2013-02-12 11:19:00,
2013-02-12 05:20:00,49.1,47.2,29.87,ENE,58,0.0,1.0,93,0.00,,,0.00,VWS V14.01,2013-02-12 11:20:00,
2013-02-12 05:24:00,49.1,47.2,29.87,NE,40,0.0,0.0,93,0.00,,,0.00,VWS V14.01,2013-02-12 11:24:00,
2013-02-12 05:25:00,49.1,47.2,29.87,NE,40,0.0,0.0,93,0.00,,,0.00,VWS V14.01,2013-02-12 11:25:00,
2013-02-12 05:29:00,49.1,47.2,29.87,NE,41,0.0,0.0,93,0.00,,,0.00,VWS V14.01,2013-02-12 11:29:00,
2013-02-12 05:30:00,49.1,47.2,29.87,NE,40,0.0,0.0,93,0.00,,,0.00,VWS V14.01,2013-02-12 11:30:00,
2013-02-12 05:34:00,49.1,47.2,29.86,NE,42,1.0,2.0,93,0.00,,,0.00,VWS V14.01,2013-02-12 11:34:00,
2013-02-12 05:35:00,49.1,47.2,29.86,NE,42,0.0,2.0,93,0.00,,,0.00,VWS V14.01,2013-02-12 11:35:00,
2013-02-12 05:39:00,49.1,47.2,29.87,NE,41,0.0,1.0,93,0.00,,,0.00,VWS V14.01,2013-02-12 11:39:00,
2013-02-12 05:40:00,49.1,47.2,29.87,NE,40,0.0,1.0,93,0.00,,,0.00,VWS V14.01,2013-02-12 11:40:00,
2013-02-12 05:44:00,49.1,47.2,29.87,NE,40,0.0,1.0,93,0.00,,,0.00,VWS V14.01,2013-02-12 11:44:00,
2013-02-12 05:45:00,49.2,47.3,29.87,NE,40,0.0,1.0,93,0.00,,,0.00,VWS V14.01,2013-02-12 11:45:00,
2013-02-12 05:49:00,49.2,47.3,29.86,NE,40,0.0,1.0,93,0.00,,,0.00,VWS V14.01,2013-02-12 11:49:00,
2013-02-12 05:50:00,49.2,47.3,29.86,NE,40,0.0,1.0,93,0.00,,,0.00,VWS V14.01,2013-02-12 11:50:00,
2013-02-12 05:54:00,49.2,47.3,29.86,NE,40,1.0,1.0,93,0.00,,,0.00,VWS V14.01,2013-02-12 11:54:00,
2013-02-12 05:55:00,49.2,47.3,29.86,NE,40,1.0,1.0,93,0.00,,,0.00,VWS V14.01,2013-02-12 11:55:00,
2013-02-12 05:59:00,49.2,47.3,29.86,NE,40,1.0,2.0,93,0.00,,,0.00,VWS V14.01,2013-02-12 11:59:00,
2013-02-12 06:00:00,49.2,47.3,29.86,NE,42,2.0,2.0,93,0.00,,,0.00,VWS V14.01,2013-02-12 12:00:00,
2013-02-12 06:04:00,49.2,47.3,29.85,NE,42,1.0,2.0,93,0.00,,,0.00,VWS V14.01,2013-02-12 12:04:00,
2013-02-12 06:05:00,49.3,47.4,29.85,NE,42,1.0,2.0,93,0.00,,,0.00,VWS V14.01,2013-02-12 12:05:00,
2013-02-12 06:09:00,49.3,47.4,29.86,NE,42,1.0,2.0,93,0.00,,,0.00,VWS V14.01,2013-02-12 12:09:00,
2013-02-12 06:10:00,49.3,47.4,29.86,NE,52,1.0,2.0,93,0.00,,,0.00,VWS V14.01,2013-02-12 12:10:00,
2013-02-12 06:14:00,49.3,47.4,29.86,NE,52,1.0,2.0,93,0.00,,,0.00,VWS V14.01,2013-02-12 12:14:00,
2013-02-12 06:15:00,49.3,47.4,29.86,NE,52,1.0,2.0,93,0.00,,,0.00,VWS V14.01,2013-02-12 12:15:00,
2013-02-12 06:19:00,49.4,47.5,29.85,ESE,112,2.0,3.0,93,0.00,,,0.00,VWS V14.01,2013-02-12 12:19:00,
2013-02-12 06:20:00,49.3,47.4,29.85,ESE,111,2.0,3.0,93,0.00,,,0.00,VWS V14.01,2013-02-12 12:20:00,
2013-02-12 06:24:00,49.3,47.4,29.86,East,97,0.0,2.0,93,0.00,,,0.00,VWS V14.01,2013-02-12 12:24:00,
2013-02-12 06:25:00,49.3,47.4,29.86,East,97,0.0,2.0,93,0.00,,,0.00,VWS V14.01,2013-02-12 12:25:00,
2013-02-12 06:29:00,49.3,47.4,29.86,East,97,1.0,1.0,93,0.00,,,0.00,VWS V14.01,2013-02-12 12:29:00,
2013-02-12 06:30:00,49.3,47.4,29.86,East,97,2.0,2.0,93,0.00,,,0.00,VWS V14.01,2013-02-12 12:30:00,
2013-02-12 06:34:00,49.4,47.5,29.86,East,98,2.0,3.0,93,0.00,,,0.00,VWS V14.01,2013-02-12 12:34:00,
2013-02-12 06:35:00,49.3,47.4,29.86,East,98,1.0,3.0,93,0.00,,,0.00,VWS V14.01,2013-02-12 12:35:00,
2013-02-12 06:39:00,49.4,47.5,29.87,SSW,196,2.0,3.0,93,0.00,,,0.00,VWS V14.01,2013-02-12 12:39:00,
2013-02-12 06:40:00,49.4,47.5,29.87,SSW,193,2.0,3.0,93,0.00,,,0.00,VWS V14.01,2013-02-12 12:40:00,
2013-02-12 06:44:00,49.4,47.5,29.87,South,170,1.0,2.0,93,0.00,,,0.00,VWS V14.01,2013-02-12 12:44:00,
2013-02-12 06:45:00,49.4,47.5,29.87,South,170,0.0,2.0,93,0.00,,,0.00,VWS V14.01,2013-02-12 12:45:00,
2013-02-12 06:49:00,49.4,47.5,29.87,SW,216,0.0,2.0,93,0.00,,,0.00,VWS V14.01,2013-02-12 12:49:00,
2013-02-12 06:50:00,49.4,47.5,29.87,SW,216,0.0,2.0,93,0.00,,,0.00,VWS V14.01,2013-02-12 12:50:00,
2013-02-12 06:54:00,49.4,47.5,29.87,SW,216,0.0,1.0,93,0.00,,,0.00,VWS V14.01,2013-02-12 12:54:00,
2013-02-12 06:55:00,49.4,47.5,29.87,SW,216,0.0,1.0,93,0.00,,,0.00,VWS V14.01,2013-02-12 12:55:00,
2013-02-12 06:59:00,49.4,47.5,29.88,SW,216,0.0,0.0,93,0.00,,,0.00,VWS V14.01,2013-02-12 12:59:00,
2013-02-12 07:00:00,49.4,47.5,29.88,SW,216,0.0,0.0,93,0.00,,,0.00,VWS V14.01,2013-02-12 13:00:00,
2013-02-12 07:04:00,49.5,47.6,29.89,NW,316,2.0,2.0,93,0.00,,,0.00,VWS V14.01,2013-02-12 13:04:00,
2013-02-12 07:05:00,49.5,47.6,29.89,NW,316,0.0,2.0,93,0.00,,,0.00,VWS V14.01,2013-02-12 13:05:00,
2013-02-12 07:09:00,49.5,47.6,29.89,NNW,341,1.0,3.0,93,0.00,,,0.00,VWS V14.01,2013-02-12 13:09:00,
2013-02-12 07:10:00,49.5,47.6,29.89,NW,322,0.0,3.0,93,0.00,,,0.00,VWS V14.01,2013-02-12 13:10:00,
2013-02-12 07:14:00,49.5,47.6,29.89,NW,322,1.0,3.0,93,0.00,,,0.00,VWS V14.01,2013-02-12 13:14:00,
2013-02-12 07:15:00,49.5,47.6,29.89,NW,322,0.0,3.0,93,0.00,,,0.00,VWS V14.01,2013-02-12 13:15:00,
2013-02-12 07:19:00,49.5,47.6,29.90,NW,312,0.0,2.0,93,0.01,,,0.01,VWS V14.01,2013-02-12 13:19:00,
2013-02-12 07:20:00,49.5,47.6,29.90,NW,312,1.0,2.0,93,0.01,,,0.01,VWS V14.01,2013-02-12 13:20:00,
2013-02-12 07:24:00,49.5,47.6,29.90,NW,318,3.0,4.0,93,0.01,,,0.01,VWS V14.01,2013-02-12 13:24:00,
2013-02-12 07:25:00,49.5,47.6,29.90,NW,316,3.0,4.0,93,0.01,,,0.01,VWS V14.01,2013-02-12 13:25:00,
2013-02-12 07:29:00,49.5,47.6,29.89,NNW,332,3.0,3.0,93,0.01,,,0.01,VWS V14.01,2013-02-12 13:29:00,
2013-02-12 07:30:00,49.5,47.6,29.89,NNW,330,1.0,3.0,93,0.01,,,0.01,VWS V14.01,2013-02-12 13:30:00,
2013-02-12 07:34:00,49.5,47.6,29.89,NNW,331,2.0,2.0,93,0.01,,,0.01,VWS V14.01,2013-02-12 13:34:00,
2013-02-12 07:35:00,49.5,47.6,29.89,NNW,331,1.0,2.0,93,0.01,,,0.01,VWS V14.01,2013-02-12 13:35:00,
2013-02-12 07:39:00,49.5,47.6,29.89,NNW,331,1.0,2.0,93,0.01,,,0.01,VWS V14.01,2013-02-12 13:39:00,
2013-02-12 07:40:00,49.6,47.7,29.89,NNW,331,1.0,2.0,93,0.01,,,0.01,VWS V14.01,2013-02-12 13:40:00,
2013-02-12 07:44:00,49.6,47.7,29.90,NNW,332,0.0,1.0,93,0.01,,,0.01,VWS V14.01,2013-02-12 13:44:00,
2013-02-12 07:45:00,49.6,48.0,29.90,NNW,333,0.0,1.0,94,0.01,,,0.01,VWS V14.01,2013-02-12 13:45:00,
2013-02-12 07:49:00,49.7,48.0,29.90,NNW,333,0.0,0.0,94,0.01,,,0.01,VWS V14.01,2013-02-12 13:49:00,
2013-02-12 07:50:00,49.7,48.0,29.89,NNW,333,0.0,0.0,94,0.01,,,0.01,VWS V14.01,2013-02-12 13:50:00,
2013-02-12 07:54:00,49.7,48.0,29.90,NNW,331,0.0,1.0,94,0.01,,,0.01,VWS V14.01,2013-02-12 13:54:00,
2013-02-12 07:55:00,49.7,48.0,29.90,NNW,331,0.0,1.0,94,0.01,,,0.01,VWS V14.01,2013-02-12 13:55:00,
2013-02-12 07:59:00,49.8,48.2,29.89,NNW,331,1.0,1.0,94,0.01,,,0.01,VWS V14.01,2013-02-12 13:59:00,
2013-02-12 08:00:00,49.8,48.2,29.90,NNW,332,0.0,1.0,94,0.01,,,0.01,VWS V14.01,2013-02-12 14:00:00,
2013-02-12 08:04:00,49.8,48.2,29.90,NNW,332,1.0,1.0,94,0.01,,,0.01,VWS V14.01,2013-02-12 14:04:00,
2013-02-12 08:05:00,49.8,48.2,29.90,NNW,331,0.0,1.0,94,0.01,,,0.01,VWS V14.01,2013-02-12 14:05:00,
2013-02-12 08:09:00,49.9,48.2,29.90,NNW,332,0.0,1.0,94,0.01,,,0.01,VWS V14.01,2013-02-12 14:09:00,
2013-02-12 08:10:00,49.9,48.2,29.90,NNW,332,0.0,1.0,94,0.01,,,0.01,VWS V14.01,2013-02-12 14:10:00,
2013-02-12 08:14:00,50.0,48.3,29.90,NNW,331,1.0,1.0,94,0.01,,,0.01,VWS V14.01,2013-02-12 14:14:00,
2013-02-12 08:15:00,50.0,48.3,29.90,NNW,331,1.0,2.0,94,0.01,,,0.01,VWS V14.01,2013-02-12 14:15:00,
2013-02-12 08:19:00,50.0,48.3,29.90,NW,315,2.0,2.0,94,0.01,,,0.01,VWS V14.01,2013-02-12 14:19:00,
2013-02-12 08:20:00,50.0,48.3,29.90,NW,315,0.0,2.0,94,0.01,,,0.01,VWS V14.01,2013-02-12 14:20:00,
2013-02-12 08:24:00,50.1,48.4,29.90,NW,319,0.0,1.0,94,0.00,,,0.01,VWS V14.01,2013-02-12 14:24:00,
2013-02-12 08:25:00,50.1,48.4,29.90,WNW,302,2.0,3.0,94,0.00,,,0.01,VWS V14.01,2013-02-12 14:25:00,
2013-02-12 08:29:00,50.1,48.4,29.91,NW,312,1.0,2.0,94,0.00,,,0.01,VWS V14.01,2013-02-12 14:29:00,
2013-02-12 08:30:00,50.1,48.4,29.91,NW,317,0.0,2.0,94,0.00,,,0.01,VWS V14.01,2013-02-12 14:30:00,
2013-02-12 08:34:00,50.2,48.5,29.90,NW,315,1.0,2.0,94,0.00,,,0.01,VWS V14.01,2013-02-12 14:34:00,
2013-02-12 08:35:00,50.3,48.6,29.90,NW,315,1.0,2.0,94,0.00,,,0.01,VWS V14.01,2013-02-12 14:35:00,
2013-02-12 08:39:00,50.3,48.6,29.91,NW,320,1.0,2.0,94,0.00,,,0.01,VWS V14.01,2013-02-12 14:39:00,
2013-02-12 08:40:00,50.3,48.6,29.91,NW,311,0.0,3.0,94,0.00,,,0.01,VWS V14.01,2013-02-12 14:40:00,
2013-02-12 08:44:00,50.4,48.7,29.91,NNW,328,0.0,2.0,94,0.00,,,0.01,VWS V14.01,2013-02-12 14:44:00,
2013-02-12 08:45:00,50.4,48.7,29.92,NW,324,2.0,4.0,94,0.00,,,0.01,VWS V14.01,2013-02-12 14:45:00,
2013-02-12 08:49:00,50.3,48.6,29.92,NNW,334,3.0,5.0,94,0.00,,,0.01,VWS V14.01,2013-02-12 14:49:00,
2013-02-12 08:50:00,50.4,48.7,29.92,NW,322,2.0,5.0,94,0.00,,,0.01,VWS V14.01,2013-02-12 14:50:00,
2013-02-12 08:54:00,50.4,48.7,29.92,NW,322,2.0,6.0,94,0.00,,,0.01,VWS V14.01,2013-02-12 14:54:00,
2013-02-12 08:55:00,50.4,48.7,29.92,WNW,303,2.0,6.0,94,0.00,,,0.01,VWS V14.01,2013-02-12 14:55:00,
2013-02-12 08:59:00,50.5,48.8,29.92,NW,326,2.0,5.0,94,0.00,,,0.01,VWS V14.01,2013-02-12 14:59:00,
2013-02-12 09:00:00,50.5,48.8,29.92,North,351,1.0,5.0,94,0.00,,,0.01,VWS V14.01,2013-02-12 15:00:00,
2013-02-12 09:04:00,50.6,48.9,29.92,NW,323,1.0,4.0,94,0.00,,,0.01,VWS V14.01,2013-02-12 15:04:00,
2013-02-12 09:05:00,50.6,48.9,29.92,NNW,327,2.0,4.0,94,0.00,,,0.01,VWS V14.01,2013-02-12 15:05:00,
2013-02-12 09:09:00,50.6,48.9,29.92,NNW,330,0.0,4.0,94,0.00,,,0.01,VWS V14.01,2013-02-12 15:09:00,
2013-02-12 09:10:00,50.6,48.9,29.92,NW,311,0.0,4.0,94,0.00,,,0.01,VWS V14.01,2013-02-12 15:10:00,
2013-02-12 09:14:00,50.8,49.1,29.92,NNW,332,0.0,3.0,94,0.00,,,0.01,VWS V14.01,2013-02-12 15:14:00,
2013-02-12 09:15:00,50.9,49.2,29.92,NNW,332,0.0,3.0,94,0.00,,,0.01,VWS V14.01,2013-02-12 15:15:00,
2013-02-12 09:19:00,51.0,49.3,29.92,WNW,296,1.0,3.0,94,0.00,,,0.01,VWS V14.01,2013-02-12 15:19:00,
2013-02-12 09:20:00,51.0,49.3,29.92,SW,232,3.0,3.0,94,0.00,,,0.01,VWS V14.01,2013-02-12 15:20:00,
2013-02-12 09:24:00,51.1,49.4,29.92,NW,322,2.0,3.0,94,0.00,,,0.01,VWS V14.01,2013-02-12 15:24:00,
2013-02-12 09:25:00,51.1,49.4,29.92,NW,305,1.0,3.0,94,0.00,,,0.01,VWS V14.01,2013-02-12 15:25:00,
2013-02-12 09:29:00,51.2,49.5,29.92,NW,311,0.0,3.0,94,0.00,,,0.01,VWS V14.01,2013-02-12 15:29:00,
2013-02-12 09:30:00,51.2,49.5,29.92,NW,311,0.0,3.0,94,0.00,,,0.01,VWS V14.01,2013-02-12 15:30:00,
2013-02-12 09:34:00,51.4,49.7,29.93,WNW,291,2.0,3.0,94,0.00,,,0.01,VWS V14.01,2013-02-12 15:34:00,
2013-02-12 09:35:00,51.5,49.8,29.93,WNW,288,4.0,5.0,94,0.00,,,0.01,VWS V14.01,2013-02-12 15:35:00,
2013-02-12 09:39:00,51.6,49.7,29.93,NW,322,3.0,5.0,93,0.00,,,0.01,VWS V14.01,2013-02-12 15:39:00,
2013-02-12 09:40:00,51.6,49.7,29.93,NW,317,0.0,5.0,93,0.00,,,0.01,VWS V14.01,2013-02-12 15:40:00,
2013-02-12 09:44:00,51.8,49.8,29.93,NW,311,0.0,3.0,93,0.00,,,0.01,VWS V14.01,2013-02-12 15:44:00,
2013-02-12 09:45:00,51.9,50.2,29.93,West,280,3.0,3.0,94,0.00,,,0.01,VWS V14.01,2013-02-12 15:45:00,
2013-02-12 09:49:00,52.0,50.0,29.92,NW,304,2.0,3.0,93,0.00,,,0.01,VWS V14.01,2013-02-12 15:49:00,
2013-02-12 09:50:00,52.0,50.0,29.92,NW,320,1.0,3.0,93,0.00,,,0.01,VWS V14.01,2013-02-12 15:50:00,
2013-02-12 09:54:00,52.3,50.3,29.93,WNW,296,2.0,3.0,93,0.00,,,0.01,VWS V14.01,2013-02-12 15:54:00,
2013-02-12 09:55:00,52.3,50.3,29.93,NNW,329,1.0,4.0,93,0.00,,,0.01,VWS V14.01,2013-02-12 15:55:00,
2013-02-12 09:59:00,52.3,50.3,29.93,NW,313,2.0,4.0,93,0.00,,,0.01,VWS V14.01,2013-02-12 15:59:00,
2013-02-12 10:00:00,52.3,50.3,29.93,NW,324,5.0,5.0,93,0.00,,,0.01,VWS V14.01,2013-02-12 16:00:00,
2013-02-12 10:04:00,52.5,50.5,29.93,NNW,330,0.0,6.0,93,0.00,,,0.01,VWS V14.01,2013-02-12 16:04:00,
2013-02-12 10:05:00,52.5,50.5,29.93,NW,310,1.0,6.0,93,0.00,,,0.01,VWS V14.01,2013-02-12 16:05:00,
2013-02-12 10:09:00,52.6,50.6,29.93,NW,323,3.0,5.0,93,0.00,,,0.01,VWS V14.01,2013-02-12 16:09:00,
2013-02-12 10:10:00,52.6,50.3,29.93,NNW,344,2.0,5.0,92,0.00,,,0.01,VWS V14.01,2013-02-12 16:10:00,
2013-02-12 10:14:00,52.9,50.9,29.93,NW,313,5.0,7.0,93,0.00,,,0.01,VWS V14.01,2013-02-12 16:14:00,
2013-02-12 10:15:00,52.9,50.6,29.93,West,276,3.0,7.0,92,0.00,,,0.01,VWS V14.01,2013-02-12 16:15:00,
2013-02-12 10:19:00,53.2,51.2,29.93,NNW,345,1.0,4.0,93,0.00,,,0.01,VWS V14.01,2013-02-12 16:19:00,
2013-02-12 10:20:00,53.3,51.3,29.93,NW,309,3.0,4.0,93,0.00,,,0.01,VWS V14.01,2013-02-12 16:20:00,
2013-02-12 10:23:00,53.4,51.1,29.93,WNW,300,1.0,5.0,92,0.00,,,0.01,VWS V14.01,2013-02-12 16:23:00,
2013-02-12 10:25:00,53.6,51.3,29.93,NNW,338,2.0,5.0,92,0.00,,,0.01,VWS V14.01,2013-02-12 16:25:00,
2013-02-12 10:28:00,53.7,51.1,29.93,NNW,330,4.0,5.0,91,0.00,,,0.01,VWS V14.01,2013-02-12 16:28:00,
2013-02-12 10:30:00,53.7,51.1,29.93,NNW,336,3.0,5.0,91,0.00,,,0.01,VWS V14.01,2013-02-12 16:30:00,
2013-02-12 10:33:00,54.0,51.4,29.93,NW,315,3.0,6.0,91,0.00,,,0.01,VWS V14.01,2013-02-12 16:33:00,
2013-02-12 10:35:00,54.1,51.5,29.94,NW,307,2.0,6.0,91,0.00,,,0.01,VWS V14.01,2013-02-12 16:35:00,
2013-02-12 10:38:00,54.5,51.9,29.94,NW,324,4.0,5.0,91,0.00,,,0.01,VWS V14.01,2013-02-12 16:38:00,
2013-02-12 10:40:00,54.7,52.1,29.94,NW,322,7.0,9.0,91,0.00,,,0.01,VWS V14.01,2013-02-12 16:40:00,
2013-02-12 10:43:00,54.9,52.0,29.94,WNW,302,4.0,10.0,90,0.00,,,0.01,VWS V14.01,2013-02-12 16:43:00,
2013-02-12 10:45:00,55.1,52.2,29.94,NNW,329,2.0,10.0,90,0.00,,,0.01,VWS V14.01,2013-02-12 16:45:00,
2013-02-12 10:48:00,55.9,53.0,29.94,WNW,288,4.0,8.0,90,0.00,,,0.01,VWS V14.01,2013-02-12 16:48:00,
2013-02-12 10:50:00,56.2,53.3,29.94,NW,311,1.0,8.0,90,0.00,,,0.01,VWS V14.01,2013-02-12 16:50:00,
2013-02-12 10:53:00,56.7,53.2,29.94,West,277,5.0,7.0,88,0.00,,,0.01,VWS V14.01,2013-02-12 16:53:00,
2013-02-12 10:55:00,56.9,53.1,29.94,WNW,300,3.0,8.0,87,0.00,,,0.01,VWS V14.01,2013-02-12 16:55:00,
2013-02-12 10:58:00,57.5,53.7,29.94,NW,310,2.0,5.0,87,0.00,,,0.01,VWS V14.01,2013-02-12 16:58:00,
2013-02-12 11:00:00,57.7,53.9,29.94,WNW,296,1.0,5.0,87,0.00,,,0.01,VWS V14.01,2013-02-12 17:00:00,
2013-02-12 11:03:00,57.9,53.4,29.93,NW,310,7.0,11.0,85,0.00,,,0.01,VWS V14.01,2013-02-12 17:03:00,
2013-02-12 11:05:00,57.9,53.4,29.93,NW,322,10.0,11.0,85,0.00,,,0.01,VWS V14.01,2013-02-12 17:05:00,
2013-02-12 11:08:00,58.7,54.5,29.93,WNW,287,1.0,10.0,86,0.00,,,0.01,VWS V14.01,2013-02-12 17:08:00,
2013-02-12 11:10:00,59.0,54.5,29.93,WNW,296,6.0,10.0,85,0.00,,,0.01,VWS V14.01,2013-02-12 17:10:00,
2013-02-12 11:13:00,59.6,54.1,29.93,SW,227,5.0,9.0,82,0.00,,,0.01,VWS V14.01,2013-02-12 17:13:00,
2013-02-12 11:15:00,59.9,54.4,29.93,West,267,11.0,13.0,82,0.00,,,0.01,VWS V14.01,2013-02-12 17:15:00,
2013-02-12 11:18:00,60.1,53.9,29.94,NNW,332,6.0,11.0,80,0.00,,,0.01,VWS V14.01,2013-02-12 17:18:00,
2013-02-12 11:20:00,60.0,53.5,29.93,SW,234,9.0,15.0,79,0.00,,,0.01,VWS V14.01,2013-02-12 17:20:00,
2013-02-12 11:23:00,59.6,53.1,29.93,SW,223,3.0,14.0,79,0.00,,,0.01,VWS V14.01,2013-02-12 17:23:00,
2013-02-12 11:25:00,59.5,53.0,29.94,WNW,300,7.0,14.0,79,0.00,,,0.01,VWS V14.01,2013-02-12 17:25:00,
2013-02-12 11:28:00,59.4,52.9,29.94,NW,318,10.0,16.0,79,0.00,,,0.01,VWS V14.01,2013-02-12 17:28:00,
2013-02-12 11:30:00,59.2,52.7,29.94,NNW,340,5.0,16.0,79,0.00,,,0.01,VWS V14.01,2013-02-12 17:30:00,
2013-02-12 11:33:00,58.9,52.4,29.93,West,280,11.0,17.0,79,0.00,,,0.01,VWS V14.01,2013-02-12 17:33:00,
2013-02-12 11:35:00,58.7,52.2,29.93,WNW,293,13.0,17.0,79,0.00,,,0.01,VWS V14.01,2013-02-12 17:35:00,
2013-02-12 11:38:00,58.6,52.1,29.92,NW,312,10.0,14.0,79,0.00,,,0.01,VWS V14.01,2013-02-12 17:38:00,
2013-02-12 11:40:00,58.4,51.9,29.92,WNW,293,3.0,15.0,79,0.00,,,0.01,VWS V14.01,2013-02-12 17:40:00,
2013-02-12 11:43:00,58.4,52.3,29.92,NW,315,9.0,14.0,80,0.00,,,0.01,VWS V14.01,2013-02-12 17:43:00,
2013-02-12 11:45:00,58.7,52.9,29.92,NW,324,6.0,14.0,81,0.00,,,0.01,VWS V14.01,2013-02-12 17:45:00,
2013-02-12 11:48:00,58.6,52.1,29.92,NW,325,11.0,18.0,79,0.00,,,0.01,VWS V14.01,2013-02-12 17:48:00,
2013-02-12 11:50:00,58.4,51.6,29.92,WNW,288,7.0,18.0,78,0.00,,,0.01,VWS V14.01,2013-02-12 17:50:00,
2013-02-12 11:53:00,58.7,52.6,29.92,NNW,330,5.0,12.0,80,0.00,,,0.01,VWS V14.01,2013-02-12 17:53:00,
2013-02-12 11:55:00,59.3,53.5,29.92,NNW,329,1.0,12.0,81,0.00,,,0.01,VWS V14.01,2013-02-12 17:55:00,
2013-02-12 11:58:00,60.0,52.4,29.91,NW,325,10.0,13.0,76,0.00,,,0.01,VWS V14.01,2013-02-12 17:58:00,
2013-02-12 12:00:00,60.2,52.6,29.91,WNW,287,9.0,13.0,76,0.00,,,0.01,VWS V14.01,2013-02-12 18:00:00,
2013-02-12 12:03:00,60.3,52.3,29.91,NW,306,5.0,14.0,75,0.00,,,0.01,VWS V14.01,2013-02-12 18:03:00,
2013-02-12 12:05:00,60.3,52.3,29.91,WNW,296,7.0,14.0,75,0.00,,,0.01,VWS V14.01,2013-02-12 18:05:00,
2013-02-12 12:08:00,60.4,52.1,29.91,NW,324,6.0,17.0,74,0.00,,,0.01,VWS V14.01,2013-02-12 18:08:00,
2013-02-12 12:10:00,60.3,52.7,29.91,NW,305,5.0,18.0,76,0.00,,,0.01,VWS V14.01,2013-02-12 18:10:00,
2013-02-12 12:13:00,60.7,52.0,29.91,NW,309,2.0,15.0,73,0.00,,,0.01,VWS V14.01,2013-02-12 18:13:00,
2013-02-12 12:15:00,60.8,52.1,29.91,WNW,293,8.0,15.0,73,0.00,,,0.01,VWS V14.01,2013-02-12 18:15:00,
2013-02-12 12:18:00,61.3,52.2,29.91,NW,323,15.0,17.0,72,0.00,,,0.01,VWS V14.01,2013-02-12 18:18:00,
2013-02-12 12:20:00,61.2,52.5,29.91,NW,324,9.0,17.0,73,0.00,,,0.01,VWS V14.01,2013-02-12 18:20:00,
2013-02-12 12:23:00,61.0,51.9,29.91,NW,320,13.0,16.0,72,0.00,,,0.01,VWS V14.01,2013-02-12 18:23:00,
2013-02-12 12:25:00,61.1,52.8,29.91,NW,317,5.0,18.0,74,0.00,,,0.01,VWS V14.01,2013-02-12 18:25:00,
2013-02-12 12:28:00,60.9,52.2,29.91,NW,317,13.0,18.0,73,0.00,,,0.01,VWS V14.01,2013-02-12 18:28:00,
2013-02-12 12:30:00,61.0,51.5,29.91,NW,315,11.0,18.0,71,0.00,,,0.01,VWS V14.01,2013-02-12 18:30:00,
2013-02-12 12:35:00,66.3,52.5,29.87,SSW,198,2.0,14.0,61,0.00,,,0.01,VWS V14.01,2013-02-12 18:35:00,
2013-02-12 12:37:00,61.0,51.5,29.91,NW,315,11.0,18.0,71,0.00,,,0.01,VWS V14.01,2013-02-12 18:37:00,
2013-02-12 12:40:00,61.4,51.5,29.91,NW,319,15.0,19.0,70,0.00,,,0.01,VWS V14.01,2013-02-12 18:40:00,
2013-02-12 12:42:00,61.1,51.6,29.90,NNW,335,14.0,18.0,71,0.00,,,0.01,VWS V14.01,2013-02-12 18:42:00,
2013-02-12 12:45:00,61.3,52.2,29.90,NW,318,8.0,18.0,72,0.00,,,0.01,VWS V14.01,2013-02-12 18:45:00,
2013-02-12 12:47:00,61.8,52.3,29.90,West,264,5.0,12.0,71,0.00,,,0.01,VWS V14.01,2013-02-12 18:47:00,
2013-02-12 12:50:00,62.4,52.9,29.90,NNW,328,11.0,13.0,71,0.00,,,0.01,VWS V14.01,2013-02-12 18:50:00,
2013-02-12 12:52:00,62.4,52.5,29.90,West,272,14.0,20.0,70,0.00,,,0.01,VWS V14.01,2013-02-12 18:52:00,
2013-02-12 12:55:00,62.6,52.7,29.90,NW,326,13.0,20.0,70,0.00,,,0.01,VWS V14.01,2013-02-12 18:55:00,
2013-02-12 12:57:00,62.4,52.1,29.89,NNW,337,11.0,18.0,69,0.00,,,0.01,VWS V14.01,2013-02-12 18:57:00,
2013-02-12 13:00:00,62.3,52.4,29.89,West,270,7.0,18.0,70,0.00,,,0.01,VWS V14.01,2013-02-12 19:00:00,
2013-02-12 13:02:00,62.4,52.1,29.88,NW,317,10.0,10.0,69,0.00,,,0.01,VWS V14.01,2013-02-12 19:02:00,
2013-02-12 13:05:00,62.4,52.5,29.88,NW,307,2.0,11.0,70,0.00,,,0.01,VWS V14.01,2013-02-12 19:05:00,
2013-02-12 13:07:00,62.7,52.4,29.88,NW,318,7.0,9.0,69,0.00,,,0.01,VWS V14.01,2013-02-12 19:07:00,
2013-02-12 13:10:00,63.1,52.4,29.88,WNW,284,12.0,17.0,68,0.00,,,0.01,VWS V14.01,2013-02-12 19:10:00,
2013-02-12 13:12:00,63.4,52.3,29.88,NW,313,10.0,12.0,67,0.00,,,0.01,VWS V14.01,2013-02-12 19:12:00,
2013-02-12 13:15:00,63.6,52.5,29.87,NNW,337,3.0,12.0,67,0.00,,,0.01,VWS V14.01,2013-02-12 19:15:00,
2013-02-12 13:17:00,64.1,52.9,29.87,WNW,286,4.0,11.0,67,0.00,,,0.01,VWS V14.01,2013-02-12 19:17:00,
2013-02-12 13:20:00,64.6,52.6,29.87,West,262,13.0,13.0,65,0.00,,,0.01,VWS V14.01,2013-02-12 19:20:00,
2013-02-12 13:22:00,64.8,52.8,29.87,WNW,293,9.0,10.0,65,0.00,,,0.01,VWS V14.01,2013-02-12 19:22:00,
2013-02-12 13:25:00,64.9,52.9,29.87,NW,325,2.0,12.0,65,0.00,,,0.01,VWS V14.01,2013-02-12 19:25:00,
2013-02-12 13:27:00,65.3,53.2,29.87,NW,322,2.0,7.0,65,0.00,,,0.01,VWS V14.01,2013-02-12 19:27:00,
2013-02-12 13:30:00,66.0,52.6,29.86,WNW,287,7.0,9.0,62,0.00,,,0.01,VWS V14.01,2013-02-12 19:30:00,
2013-02-12 13:32:00,66.2,52.8,29.86,NW,311,4.0,14.0,62,0.00,,,0.01,VWS V14.01,2013-02-12 19:32:00,
2013-02-12 13:35:00,66.3,52.5,29.87,SSW,198,2.0,14.0,61,0.00,,,0.01,VWS V14.01,2013-02-12 19:35:00,
2013-02-12 13:37:00,66.3,52.5,29.87,SW,219,3.0,7.0,61,0.00,,,0.01,VWS V14.01,2013-02-12 19:37:00,
2013-02-12 13:40:00,66.7,52.8,29.86,SW,218,5.0,9.0,61,0.00,,,0.01,VWS V14.01,2013-02-12 19:40:00,
2013-02-12 13:42:00,66.7,52.8,29.86,NNW,334,3.0,12.0,61,0.00,,,0.01,VWS V14.01,2013-02-12 19:42:00,
2013-02-12 13:45:00,66.9,52.6,29.85,WSW,244,9.0,12.0,60,0.00,,,0.01,VWS V14.01,2013-02-12 19:45:00,
2013-02-12 13:47:00,67.0,52.7,29.85,WNW,297,2.0,9.0,60,0.00,,,0.01,VWS V14.01,2013-02-12 19:47:00,
2013-02-12 13:50:00,67.1,52.3,29.85,SE,144,2.0,9.0,59,0.00,,,0.01,VWS V14.01,2013-02-12 19:50:00,
2013-02-12 13:52:00,67.3,53.0,29.85,NW,314,1.0,5.0,60,0.00,,,0.01,VWS V14.01,2013-02-12 19:52:00,
2013-02-12 13:55:00,67.9,52.6,29.85,NW,311,4.0,10.0,58,0.00,,,0.01,VWS V14.01,2013-02-12 19:55:00,
2013-02-12 13:57:00,68.1,52.3,29.85,NNW,338,2.0,6.0,57,0.00,,,0.01,VWS V14.01,2013-02-12 19:57:00,
2013-02-12 14:00:00,68.1,52.3,29.84,WNW,294,3.0,8.0,57,0.00,,,0.01,VWS V14.01,2013-02-12 20:00:00,
2013-02-12 14:02:00,68.1,52.3,29.84,SW,223,3.0,6.0,57,0.00,,,0.01,VWS V14.01,2013-02-12 20:02:00,
2013-02-12 14:05:00,68.4,51.6,29.84,NW,305,3.0,10.0,55,0.00,,,0.01,VWS V14.01,2013-02-12 20:05:00,
2013-02-12 14:07:00,68.4,51.1,29.84,NW,318,2.0,8.0,54,0.00,,,0.01,VWS V14.01,2013-02-12 20:07:00,
2013-02-12 14:10:00,68.9,51.6,29.84,NNW,341,6.0,11.0,54,0.00,,,0.01,VWS V14.01,2013-02-12 20:10:00,
2013-02-12 14:12:00,68.8,51.5,29.83,SSW,206,6.0,13.0,54,0.00,,,0.01,VWS V14.01,2013-02-12 20:12:00,
2013-02-12 14:15:00,69.1,51.3,29.83,WSW,243,7.0,13.0,53,0.00,,,0.01,VWS V14.01,2013-02-12 20:15:00,
2013-02-12 14:17:00,69.6,51.7,29.83,SSW,207,4.0,6.0,53,0.00,,,0.01,VWS V14.01,2013-02-12 20:17:00,
2013-02-12 14:20:00,70.2,49.0,29.83,NW,319,8.0,13.0,47,0.00,,,0.01,VWS V14.01,2013-02-12 20:20:00,
2013-02-12 14:22:00,70.2,47.9,29.83,West,280,8.0,14.0,45,0.00,,,0.01,VWS V14.01,2013-02-12 20:22:00,
2013-02-12 14:25:00,70.3,46.8,29.83,NW,324,11.0,18.0,43,0.00,,,0.01,VWS V14.01,2013-02-12 20:25:00,
2013-02-12 14:27:00,70.1,45.3,29.83,NW,319,14.0,18.0,41,0.00,,,0.01,VWS V14.01,2013-02-12 20:27:00,
2013-02-12 14:30:00,70.1,44.0,29.82,NNW,335,6.0,18.0,39,0.00,,,0.01,VWS V14.01,2013-02-12 20:30:00,
2013-02-12 14:32:00,70.2,44.1,29.82,NNW,328,8.0,13.0,39,0.00,,,0.01,VWS V14.01,2013-02-12 20:32:00,
2013-02-12 14:35:00,70.3,44.2,29.83,NW,325,16.0,24.0,39,0.00,,,0.01,VWS V14.01,2013-02-12 20:35:00,
2013-02-12 14:37:00,70.0,42.6,29.83,WNW,294,14.0,20.0,37,0.00,,,0.01,VWS V14.01,2013-02-12 20:37:00,
2013-02-12 14:40:00,69.4,42.7,29.82,NW,319,10.0,20.0,38,0.00,,,0.01,VWS V14.01,2013-02-12 20:40:00,
2013-02-12 14:42:00,69.6,43.6,29.82,WNW,300,12.0,12.0,39,0.00,,,0.01,VWS V14.01,2013-02-12 20:42:00,
2013-02-12 14:45:00,70.0,43.2,29.82,NW,321,5.0,14.0,38,0.00,,,0.01,VWS V14.01,2013-02-12 20:45:00,
2013-02-12 14:47:00,70.1,43.3,29.82,SW,222,4.0,15.0,38,0.00,,,0.01,VWS V14.01,2013-02-12 20:47:00,
2013-02-12 14:50:00,70.3,43.5,29.82,WNW,289,6.0,15.0,38,0.00,,,0.01,VWS V14.01,2013-02-12 20:50:00,
2013-02-12 14:52:00,70.4,42.9,29.82,NW,322,12.0,17.0,37,0.00,,,0.01,VWS V14.01,2013-02-12 20:52:00,
2013-02-12 14:55:00,70.1,41.9,29.82,NW,316,12.0,17.0,36,0.00,,,0.01,VWS V14.01,2013-02-12 20:55:00,
2013-02-12 14:57:00,70.1,43.3,29.82,NNW,338,10.0,14.0,38,0.00,,,0.01,VWS V14.01,2013-02-12 20:57:00,
2013-02-12 15:00:00,70.3,41.4,29.82,WNW,294,5.0,18.0,35,0.00,,,0.01,VWS V14.01,2013-02-12 21:00:00,
2013-02-12 15:02:00,70.4,41.5,29.82,WNW,292,16.0,16.0,35,0.00,,,0.01,VWS V14.01,2013-02-12 21:02:00,
2013-02-12 15:05:00,70.5,41.6,29.82,NNW,333,4.0,20.0,35,0.00,,,0.01,VWS V14.01,2013-02-12 21:05:00,
2013-02-12 15:06:00,70.9,41.9,29.83,NNW,327,14.0,15.0,35,0.00,,,0.01,VWS V14.01,2013-02-12 21:06:00,
2013-02-12 15:10:00,71.0,41.2,29.82,West,277,6.0,17.0,34,0.00,,,0.01,VWS V14.01,2013-02-12 21:10:00,
2013-02-12 15:11:00,71.1,42.1,29.82,WNW,288,4.0,11.0,35,0.00,,,0.01,VWS V14.01,2013-02-12 21:11:00,
2013-02-12 15:15:00,71.1,40.6,29.82,West,267,3.0,12.0,33,0.00,,,0.01,VWS V14.01,2013-02-12 21:15:00,
2013-02-12 15:16:00,71.1,42.1,29.81,NW,304,2.0,10.0,35,0.00,,,0.01,VWS V14.01,2013-02-12 21:16:00,
2013-02-12 15:20:00,71.5,40.1,29.81,NW,312,6.0,15.0,32,0.00,,,0.01,VWS V14.01,2013-02-12 21:20:00,
2013-02-12 15:21:00,71.3,40.7,29.82,WNW,282,8.0,11.0,33,0.00,,,0.01,VWS V14.01,2013-02-12 21:21:00,
2013-02-12 15:25:00,70.9,37.1,29.82,West,273,13.0,17.0,29,0.00,,,0.01,VWS V14.01,2013-02-12 21:25:00,
2013-02-12 15:26:00,70.6,36.8,29.82,SSW,207,6.0,12.0,29,0.00,,,0.01,VWS V14.01,2013-02-12 21:26:00,
2013-02-12 15:30:00,70.8,38.7,29.82,WNW,295,2.0,12.0,31,0.00,,,0.01,VWS V14.01,2013-02-12 21:30:00,
2013-02-12 15:31:00,71.2,39.0,29.82,WNW,285,6.0,17.0,31,0.00,,,0.01,VWS V14.01,2013-02-12 21:31:00,
2013-02-12 15:35:00,71.2,37.3,29.81,West,273,15.0,18.0,29,0.00,,,0.01,VWS V14.01,2013-02-12 21:35:00,
2013-02-12 15:36:00,71.2,38.2,29.81,NW,315,10.0,15.0,30,0.00,,,0.01,VWS V14.01,2013-02-12 21:36:00,
2013-02-12 15:40:00,71.0,36.3,29.81,WNW,303,13.0,19.0,28,0.00,,,0.01,VWS V14.01,2013-02-12 21:40:00,
2013-02-12 15:41:00,70.9,37.1,29.81,NW,310,3.0,13.0,29,0.00,,,0.01,VWS V14.01,2013-02-12 21:41:00,
2013-02-12 15:45:00,70.9,36.2,29.81,WNW,293,3.0,14.0,28,0.00,,,0.01,VWS V14.01,2013-02-12 21:45:00,
2013-02-12 15:46:00,71.0,37.2,29.81,SW,222,8.0,11.0,29,0.00,,,0.01,VWS V14.01,2013-02-12 21:46:00,
2013-02-12 15:50:00,71.0,36.3,29.82,WSW,253,9.0,15.0,28,0.00,,,0.01,VWS V14.01,2013-02-12 21:50:00,
2013-02-12 15:51:00,70.9,36.2,29.82,WNW,293,7.0,14.0,28,0.00,,,0.01,VWS V14.01,2013-02-12 21:51:00,
2013-02-12 15:55:00,70.8,34.2,29.82,WNW,300,6.0,15.0,26,0.00,,,0.01,VWS V14.01,2013-02-12 21:55:00,
2013-02-12 15:56:00,70.8,35.2,29.81,NW,323,3.0,9.0,27,0.00,,,0.01,VWS V14.01,2013-02-12 21:56:00,
2013-02-12 16:00:00,70.8,34.2,29.81,West,270,7.0,15.0,26,0.00,,,0.01,VWS V14.01,2013-02-12 22:00:00,
2013-02-12 16:01:00,70.9,34.3,29.82,WNW,299,5.0,15.0,26,0.00,,,0.01,VWS V14.01,2013-02-12 22:01:00,
2013-02-12 16:05:00,71.1,33.5,29.82,WNW,292,7.0,14.0,25,0.00,,,0.01,VWS V14.01,2013-02-12 22:05:00,
2013-02-12 16:06:00,70.9,34.3,29.82,WNW,299,5.0,15.0,26,0.00,,,0.01,VWS V14.01,2013-02-12 22:06:00,
2013-02-12 16:10:00,70.9,33.4,29.82,NW,315,8.0,15.0,25,0.00,,,0.01,VWS V14.01,2013-02-12 22:10:00,
2013-02-12 16:11:00,70.9,34.3,29.82,WNW,299,5.0,15.0,26,0.00,,,0.01,VWS V14.01,2013-02-12 22:11:00,
2013-02-12 16:15:00,71.0,33.4,29.81,NW,315,9.0,22.0,25,0.00,,,0.01,VWS V14.01,2013-02-12 22:15:00,
2013-02-12 16:16:00,70.9,34.3,29.82,WNW,299,5.0,15.0,26,0.00,,,0.01,VWS V14.01,2013-02-12 22:16:00,
2013-02-12 16:20:00,71.1,31.5,29.82,WNW,292,7.0,19.0,23,0.00,,,0.01,VWS V14.01,2013-02-12 22:20:00,
2013-02-12 16:21:00,70.9,34.3,29.82,WNW,299,5.0,15.0,26,0.00,,,0.01,VWS V14.01,2013-02-12 22:21:00,
2013-02-12 16:25:00,70.9,32.3,29.82,West,270,8.0,15.0,24,0.00,,,0.01,VWS V14.01,2013-02-12 22:25:00,
2013-02-12 16:26:00,70.9,34.3,29.82,WNW,299,5.0,15.0,26,0.00,,,0.01,VWS V14.01,2013-02-12 22:26:00,
2013-02-12 16:30:00,70.6,29.9,29.82,NW,315,12.0,23.0,22,0.00,,,0.01,VWS V14.01,2013-02-12 22:30:00,
2013-02-12 16:31:00,70.9,34.3,29.82,WNW,299,5.0,15.0,26,0.00,,,0.01,VWS V14.01,2013-02-12 22:31:00,
2013-02-12 16:35:00,70.5,29.9,29.82,NW,315,7.0,21.0,22,0.00,,,0.01,VWS V14.01,2013-02-12 22:35:00,
2013-02-12 16:36:00,70.9,34.3,29.82,WNW,299,5.0,15.0,26,0.00,,,0.01,VWS V14.01,2013-02-12 22:36:00,
2013-02-12 16:40:00,70.3,29.7,29.83,NW,315,9.0,20.0,22,0.00,,,0.01,VWS V14.01,2013-02-12 22:40:00,
2013-02-12 16:41:00,70.9,34.3,29.82,WNW,299,5.0,15.0,26,0.00,,,0.01,VWS V14.01,2013-02-12 22:41:00,
2013-02-12 16:45:00,70.0,28.3,29.83,NW,315,11.0,20.0,21,0.00,,,0.01,VWS V14.01,2013-02-12 22:45:00,
2013-02-12 16:46:00,70.9,34.3,29.82,WNW,299,5.0,15.0,26,0.00,,,0.01,VWS V14.01,2013-02-12 22:46:00,
2013-02-12 16:50:00,70.0,28.3,29.83,West,270,7.0,18.0,21,0.00,,,0.01,VWS V14.01,2013-02-12 22:50:00,
2013-02-12 16:51:00,70.9,34.3,29.82,WNW,299,5.0,15.0,26,0.00,,,0.01,VWS V14.01,2013-02-12 22:51:00,
2013-02-12 16:55:00,69.8,28.1,29.84,NW,315,10.0,21.0,21,0.00,,,0.01,VWS V14.01,2013-02-12 22:55:00,
2013-02-12 16:56:00,70.9,34.3,29.82,WNW,299,5.0,15.0,26,0.00,,,0.01,VWS V14.01,2013-02-12 22:56:00,
2013-02-12 17:00:00,69.4,26.6,29.84,WNW,292,10.0,20.0,20,0.00,,,0.01,VWS V14.01,2013-02-12 23:00:00,
2013-02-12 17:01:00,70.9,34.3,29.82,WNW,299,5.0,15.0,26,0.00,,,0.01,VWS V14.01,2013-02-12 23:01:00,
2013-02-12 17:05:00,69.0,27.5,29.84,NW,315,9.0,19.0,21,0.00,,,0.01,VWS V14.01,2013-02-12 23:05:00,
2013-02-12 17:06:00,70.9,34.3,29.82,WNW,299,5.0,15.0,26,0.00,,,0.01,VWS V14.01,2013-02-12 23:06:00,
2013-02-12 17:10:00,68.7,26.0,29.84,West,270,8.0,19.0,20,0.00,,,0.01,VWS V14.01,2013-02-12 23:10:00,
2013-02-12 17:11:00,70.9,34.3,29.82,WNW,299,5.0,15.0,26,0.00,,,0.01,VWS V14.01,2013-02-12 23:11:00,
2013-02-12 17:15:00,68.3,26.9,29.84,West,270,9.0,23.0,21,0.00,,,0.01,VWS V14.01,2013-02-12 23:15:00,
2013-02-12 17:16:00,70.9,34.3,29.82,WNW,299,5.0,15.0,26,0.00,,,0.01,VWS V14.01,2013-02-12 23:16:00,
2013-02-12 17:20:00,68.1,27.9,29.85,WNW,292,8.0,17.0,22,0.00,,,0.01,VWS V14.01,2013-02-12 23:20:00,
2013-02-12 17:21:00,70.9,34.3,29.82,WNW,299,5.0,15.0,26,0.00,,,0.01,VWS V14.01,2013-02-12 23:21:00,
2013-02-12 17:25:00,68.2,25.6,29.85,WNW,292,10.0,20.0,20,0.00,,,0.01,VWS V14.01,2013-02-12 23:25:00,
2013-02-12 17:26:00,70.9,34.3,29.82,WNW,299,5.0,15.0,26,0.00,,,0.01,VWS V14.01,2013-02-12 23:26:00,
2013-02-12 17:30:00,68.1,26.7,29.86,West,270,7.0,14.0,21,0.00,,,0.01,VWS V14.01,2013-02-12 23:30:00,
2013-02-12 17:31:00,70.9,34.3,29.82,WNW,299,5.0,15.0,26,0.00,,,0.01,VWS V14.01,2013-02-12 23:31:00,
2013-02-12 17:35:00,68.0,26.6,29.86,WNW,292,9.0,19.0,21,0.00,,,0.01,VWS V14.01,2013-02-12 23:35:00,
2013-02-12 17:36:00,70.9,34.3,29.82,WNW,299,5.0,15.0,26,0.00,,,0.01,VWS V14.01,2013-02-12 23:36:00,
2013-02-12 17:40:00,67.7,26.4,29.86,West,270,7.0,12.0,21,0.00,,,0.01,VWS V14.01,2013-02-12 23:40:00,
2013-02-12 17:41:00,70.9,34.3,29.82,WNW,299,5.0,15.0,26,0.00,,,0.01,VWS V14.01,2013-02-12 23:41:00,
2013-02-12 17:45:00,67.3,27.2,29.85,WNW,292,5.0,12.0,22,0.00,,,0.01,VWS V14.01,2013-02-12 23:45:00,
2013-02-12 17:46:00,70.9,34.3,29.82,WNW,299,5.0,15.0,26,0.00,,,0.01,VWS V14.01,2013-02-12 23:46:00,
2013-02-12 17:50:00,66.9,26.9,29.86,West,270,5.0,10.0,22,0.00,,,0.01,VWS V14.01,2013-02-12 23:50:00,
2013-02-12 17:51:00,70.9,34.3,29.82,WNW,299,5.0,15.0,26,0.00,,,0.01,VWS V14.01,2013-02-12 23:51:00,
2013-02-12 17:55:00,66.6,26.6,29.87,WNW,292,6.0,14.0,22,0.00,,,0.01,VWS V14.01,2013-02-12 23:55:00,
2013-02-12 17:56:00,70.9,34.3,29.82,WNW,299,5.0,15.0,26,0.00,,,0.01,VWS V14.01,2013-02-12 23:56:00,
2013-02-12 18:00:00,66.3,27.4,29.87,WNW,292,5.0,12.0,23,0.00,,,0.01,VWS V14.01,2013-02-13 00:00:00,
2013-02-12 18:01:00,70.9,34.3,29.82,WNW,299,5.0,15.0,26,0.00,,,0.01,VWS V14.01,2013-02-13 00:01:00,
2013-02-12 18:05:00,66.0,25.0,29.87,WNW,292,8.0,17.0,21,0.00,,,0.01,VWS V14.01,2013-02-13 00:05:00,
2013-02-12 18:06:00,70.9,34.3,29.82,WNW,299,5.0,15.0,26,0.00,,,0.01,VWS V14.01,2013-02-13 00:06:00,
2013-02-12 18:10:00,65.9,24.9,29.87,NW,315,7.0,19.0,21,0.00,,,0.01,VWS V14.01,2013-02-13 00:10:00,
2013-02-12 18:11:00,70.9,34.3,29.82,WNW,299,5.0,15.0,26,0.00,,,0.01,VWS V14.01,2013-02-13 00:11:00,
2013-02-12 18:15:00,65.6,23.5,29.87,WNW,292,7.0,17.0,20,0.00,,,0.01,VWS V14.01,2013-02-13 00:15:00,
2013-02-12 18:16:00,70.9,34.3,29.82,WNW,299,5.0,15.0,26,0.00,,,0.01,VWS V14.01,2013-02-13 00:16:00,
2013-02-12 18:20:00,65.4,24.5,29.87,NW,315,6.0,15.0,21,0.00,,,0.01,VWS V14.01,2013-02-13 00:20:00,
2013-02-12 18:21:00,70.9,34.3,29.82,WNW,299,5.0,15.0,26,0.00,,,0.01,VWS V14.01,2013-02-13 00:21:00,
2013-02-12 18:25:00,64.9,22.9,29.88,NW,315,6.0,12.0,20,0.00,,,0.01,VWS V14.01,2013-02-13 00:25:00,
2013-02-12 18:26:00,70.9,34.3,29.82,WNW,299,5.0,15.0,26,0.00,,,0.01,VWS V14.01,2013-02-13 00:26:00,
2013-02-12 18:30:00,64.6,23.8,29.89,NW,315,5.0,13.0,21,0.00,,,0.01,VWS V14.01,2013-02-13 00:30:00,
2013-02-12 18:31:00,70.9,34.3,29.82,WNW,299,5.0,15.0,26,0.00,,,0.01,VWS V14.01,2013-02-13 00:31:00,
2013-02-12 18:35:00,64.1,23.4,29.89,NW,315,8.0,17.0,21,0.00,,,0.01,VWS V14.01,2013-02-13 00:35:00,
2013-02-12 18:36:00,70.9,34.3,29.82,WNW,299,5.0,15.0,26,0.00,,,0.01,VWS V14.01,2013-02-13 00:36:00,
2013-02-12 18:40:00,63.8,23.1,29.90,NW,315,6.0,15.0,21,0.00,,,0.01,VWS V14.01,2013-02-13 00:40:00,
2013-02-12 18:41:00,70.9,34.3,29.82,WNW,299,5.0,15.0,26,0.00,,,0.01,VWS V14.01,2013-02-13 00:41:00,
2013-02-12 18:45:00,63.7,24.2,29.90,NW,315,8.0,16.0,22,0.00,,,0.01,VWS V14.01,2013-02-13 00:45:00,
2013-02-12 18:46:00,70.9,34.3,29.82,WNW,299,5.0,15.0,26,0.00,,,0.01,VWS V14.01,2013-02-13 00:46:00,
2013-02-12 18:50:00,63.5,24.0,29.90,NW,315,8.0,18.0,22,0.00,,,0.01,VWS V14.01,2013-02-13 00:50:00,
2013-02-12 18:51:00,70.9,34.3,29.82,WNW,299,5.0,15.0,26,0.00,,,0.01,VWS V14.01,2013-02-13 00:51:00,
2013-02-12 18:55:00,63.2,24.8,29.91,NW,315,7.0,14.0,23,0.00,,,0.01,VWS V14.01,2013-02-13 00:55:00,
2013-02-12 18:56:00,70.9,34.3,29.82,WNW,299,5.0,15.0,26,0.00,,,0.01,VWS V14.01,2013-02-13 00:56:00,
2013-02-12 19:00:00,63.0,24.6,29.90,NW,315,8.0,12.0,23,0.00,,,0.01,VWS V14.01,2013-02-13 01:00:00,
2013-02-12 19:01:00,70.9,34.3,29.82,WNW,299,5.0,15.0,26,0.00,,,0.01,VWS V14.01,2013-02-13 01:01:00,
2013-02-12 19:05:00,62.6,24.3,29.90,NW,315,8.0,13.0,23,0.00,,,0.01,VWS V14.01,2013-02-13 01:05:00,
2013-02-12 19:06:00,70.9,34.3,29.82,WNW,299,5.0,15.0,26,0.00,,,0.01,VWS V14.01,2013-02-13 01:06:00,
2013-02-12 19:10:00,62.2,25.0,29.90,NW,315,8.0,12.0,24,0.00,,,0.01,VWS V14.01,2013-02-13 01:10:00,
2013-02-12 19:11:00,70.9,34.3,29.82,WNW,299,5.0,15.0,26,0.00,,,0.01,VWS V14.01,2013-02-13 01:11:00,
2013-02-12 19:15:00,62.1,25.9,29.91,NW,315,8.0,16.0,25,0.00,,,0.01,VWS V14.01,2013-02-13 01:15:00,
2013-02-12 19:16:00,70.9,34.3,29.82,WNW,299,5.0,15.0,26,0.00,,,0.01,VWS V14.01,2013-02-13 01:16:00,
2013-02-12 19:20:00,62.0,25.8,29.91,NW,315,9.0,13.0,25,0.00,,,0.01,VWS V14.01,2013-02-13 01:20:00,
2013-02-12 19:21:00,70.9,34.3,29.82,WNW,299,5.0,15.0,26,0.00,,,0.01,VWS V14.01,2013-02-13 01:21:00,
2013-02-12 19:25:00,61.9,26.7,29.91,NW,315,8.0,14.0,26,0.00,,,0.01,VWS V14.01,2013-02-13 01:25:00,
2013-02-12 19:26:00,70.9,34.3,29.82,WNW,299,5.0,15.0,26,0.00,,,0.01,VWS V14.01,2013-02-13 01:26:00,
2013-02-12 19:30:00,61.8,27.5,29.92,NW,315,8.0,13.0,27,0.00,,,0.01,VWS V14.01,2013-02-13 01:30:00,
2013-02-12 19:31:00,70.9,34.3,29.82,WNW,299,5.0,15.0,26,0.00,,,0.01,VWS V14.01,2013-02-13 01:31:00,
2013-02-12 19:35:00,61.7,27.4,29.92,NW,315,9.0,14.0,27,0.00,,,0.01,VWS V14.01,2013-02-13 01:35:00,
2013-02-12 19:36:00,70.9,34.3,29.82,WNW,299,5.0,15.0,26,0.00,,,0.01,VWS V14.01,2013-02-13 01:36:00,
2013-02-12 19:40:00,61.7,28.3,29.92,NW,315,10.0,17.0,28,0.00,,,0.01,VWS V14.01,2013-02-13 01:40:00,
2013-02-12 19:41:00,70.9,34.3,29.82,WNW,299,5.0,15.0,26,0.00,,,0.01,VWS V14.01,2013-02-13 01:41:00,
2013-02-12 19:45:00,61.7,28.3,29.92,NW,315,11.0,16.0,28,0.00,,,0.01,VWS V14.01,2013-02-13 01:45:00,
2013-02-12 19:46:00,70.9,34.3,29.82,WNW,299,5.0,15.0,26,0.00,,,0.01,VWS V14.01,2013-02-13 01:46:00,
2013-02-12 19:50:00,61.6,28.2,29.93,NW,315,10.0,17.0,28,0.00,,,0.01,VWS V14.01,2013-02-13 01:50:00,
2013-02-12 19:51:00,70.9,34.3,29.82,WNW,299,5.0,15.0,26,0.00,,,0.01,VWS V14.01,2013-02-13 01:51:00,
2013-02-12 19:55:00,61.4,28.9,29.93,NW,315,9.0,14.0,29,0.00,,,0.01,VWS V14.01,2013-02-13 01:55:00,
2013-02-12 19:56:00,70.9,34.3,29.82,WNW,299,5.0,15.0,26,0.00,,,0.01,VWS V14.01,2013-02-13 01:56:00,
2013-02-12 20:00:00,61.0,29.4,29.93,NW,315,8.0,13.0,30,0.00,,,0.01,VWS V14.01,2013-02-13 02:00:00,
2013-02-12 20:01:00,70.9,34.3,29.82,WNW,299,5.0,15.0,26,0.00,,,0.01,VWS V14.01,2013-02-13 02:01:00,
2013-02-12 20:05:00,60.6,33.5,29.93,NNW,338,9.0,14.0,36,0.00,,,0.01,VWS V14.01,2013-02-13 02:05:00,
2013-02-12 20:06:00,70.9,34.3,29.82,WNW,299,5.0,15.0,26,0.00,,,0.01,VWS V14.01,2013-02-13 02:06:00,
2013-02-12 20:10:00,60.2,36.4,29.94,NNW,338,8.0,14.0,41,0.00,,,0.01,VWS V14.01,2013-02-13 02:10:00,
2013-02-12 20:11:00,70.9,34.3,29.82,WNW,299,5.0,15.0,26,0.00,,,0.01,VWS V14.01,2013-02-13 02:11:00,
2013-02-12 20:15:00,59.7,37.8,29.94,NW,315,7.0,13.0,44,0.00,,,0.01,VWS V14.01,2013-02-13 02:15:00,
2013-02-12 20:16:00,70.9,34.3,29.82,WNW,299,5.0,15.0,26,0.00,,,0.01,VWS V14.01,2013-02-13 02:16:00,
2013-02-12 20:20:00,59.3,39.6,29.95,NNW,338,7.0,12.0,48,0.00,,,0.01,VWS V14.01,2013-02-13 02:20:00,
2013-02-12 20:21:00,70.9,34.3,29.82,WNW,299,5.0,15.0,26,0.00,,,0.01,VWS V14.01,2013-02-13 02:21:00,
2013-02-12 20:25:00,59.2,41.1,29.95,NNW,338,11.0,22.0,51,0.00,,,0.01,VWS V14.01,2013-02-13 02:25:00,
2013-02-12 20:26:00,70.9,34.3,29.82,WNW,299,5.0,15.0,26,0.00,,,0.01,VWS V14.01,2013-02-13 02:26:00,
2013-02-12 20:30:00,59.0,42.4,29.95,NNW,338,11.0,18.0,54,0.00,,,0.01,VWS V14.01,2013-02-13 02:30:00,
2013-02-12 20:31:00,70.9,34.3,29.82,WNW,299,5.0,15.0,26,0.00,,,0.01,VWS V14.01,2013-02-13 02:31:00,
2013-02-12 20:35:00,58.7,42.6,29.95,NNW,338,12.0,20.0,55,0.00,,,0.01,VWS V14.01,2013-02-13 02:35:00,
2013-02-12 20:36:00,70.9,34.3,29.82,WNW,299,5.0,15.0,26,0.00,,,0.01,VWS V14.01,2013-02-13 02:36:00,
2013-02-12 20:40:00,58.0,41.9,29.95,NNW,338,18.0,27.0,55,0.00,,,0.01,VWS V14.01,2013-02-13 02:40:00,
2013-02-12 20:41:00,70.9,34.3,29.82,WNW,299,5.0,15.0,26,0.00,,,0.01,VWS V14.01,2013-02-13 02:41:00,
2013-02-12 20:45:00,57.5,41.9,29.96,NNW,338,14.0,21.0,56,0.00,,,0.01,VWS V14.01,2013-02-13 02:45:00,
2013-02-12 20:46:00,70.9,34.3,29.82,WNW,299,5.0,15.0,26,0.00,,,0.01,VWS V14.01,2013-02-13 02:46:00,
2013-02-12 20:50:00,57.1,42.0,29.96,NNW,338,13.0,23.0,57,0.00,,,0.01,VWS V14.01,2013-02-13 02:50:00,
2013-02-12 20:51:00,70.9,34.3,29.82,WNW,299,5.0,15.0,26,0.00,,,0.01,VWS V14.01,2013-02-13 02:51:00,
2013-02-12 20:55:00,56.6,42.0,29.97,NW,315,9.0,14.0,58,0.00,,,0.01,VWS V14.01,2013-02-13 02:55:00,
2013-02-12 20:56:00,70.9,34.3,29.82,WNW,299,5.0,15.0,26,0.00,,,0.01,VWS V14.01,2013-02-13 02:56:00,
2013-02-12 21:00:00,56.3,42.2,29.98,NW,315,8.0,12.0,59,0.00,,,0.01,VWS V14.01,2013-02-13 03:00:00,
2013-02-12 21:01:00,70.9,34.3,29.82,WNW,299,5.0,15.0,26,0.00,,,0.01,VWS V14.01,2013-02-13 03:01:00,
2013-02-12 21:05:00,56.1,42.4,29.98,NW,315,7.0,16.0,60,0.00,,,0.01,VWS V14.01,2013-02-13 03:05:00,
2013-02-12 21:06:00,70.9,34.3,29.82,WNW,299,5.0,15.0,26,0.00,,,0.01,VWS V14.01,2013-02-13 03:06:00,
2013-02-12 21:10:00,55.8,42.1,29.99,NW,315,7.0,14.0,60,0.00,,,0.01,VWS V14.01,2013-02-13 03:10:00,
2013-02-12 21:11:00,70.9,34.3,29.82,WNW,299,5.0,15.0,26,0.00,,,0.01,VWS V14.01,2013-02-13 03:11:00,
2013-02-12 21:15:00,55.5,41.9,30.00,NW,315,11.0,18.0,60,0.00,,,0.01,VWS V14.01,2013-02-13 03:15:00,
2013-02-12 21:16:00,70.9,34.3,29.82,WNW,299,5.0,15.0,26,0.00,,,0.01,VWS V14.01,2013-02-13 03:16:00,
2013-02-12 21:20:00,55.1,41.9,30.00,NNW,338,15.0,22.0,61,0.00,,,0.01,VWS V14.01,2013-02-13 03:20:00,
2013-02-12 21:21:00,70.9,34.3,29.82,WNW,299,5.0,15.0,26,0.00,,,0.01,VWS V14.01,2013-02-13 03:21:00,
2013-02-12 21:25:00,54.5,41.8,30.00,NW,315,13.0,22.0,62,0.00,,,0.01,VWS V14.01,2013-02-13 03:25:00,
2013-02-12 21:26:00,70.9,34.3,29.82,WNW,299,5.0,15.0,26,0.00,,,0.01,VWS V14.01,2013-02-13 03:26:00,
2013-02-12 21:30:00,53.9,41.6,30.01,NW,315,15.0,26.0,63,0.00,,,0.01,VWS V14.01,2013-02-13 03:30:00,
2013-02-12 21:31:00,70.9,34.3,29.82,WNW,299,5.0,15.0,26,0.00,,,0.01,VWS V14.01,2013-02-13 03:31:00,
2013-02-12 21:35:00,53.4,41.5,30.01,NW,315,12.0,20.0,64,0.00,,,0.01,VWS V14.01,2013-02-13 03:35:00,
2013-02-12 21:36:00,70.9,34.3,29.82,WNW,299,5.0,15.0,26,0.00,,,0.01,VWS V14.01,2013-02-13 03:36:00,
2013-02-12 21:40:00,53.0,41.6,30.01,NW,315,14.0,21.0,65,0.00,,,0.01,VWS V14.01,2013-02-13 03:40:00,
2013-02-12 21:41:00,70.9,34.3,29.82,WNW,299,5.0,15.0,26,0.00,,,0.01,VWS V14.01,2013-02-13 03:41:00,
2013-02-12 21:45:00,52.7,41.7,30.01,NW,315,15.0,23.0,66,0.00,,,0.01,VWS V14.01,2013-02-13 03:45:00,
2013-02-12 21:46:00,70.9,34.3,29.82,WNW,299,5.0,15.0,26,0.00,,,0.01,VWS V14.01,2013-02-13 03:46:00,
2013-02-12 21:50:00,52.4,41.8,30.02,NW,315,11.0,19.0,67,0.00,,,0.01,VWS V14.01,2013-02-13 03:50:00,
2013-02-12 21:51:00,70.9,34.3,29.82,WNW,299,5.0,15.0,26,0.00,,,0.01,VWS V14.01,2013-02-13 03:51:00,
2013-02-12 21:55:00,70.9,34.3,29.82,WNW,299,5.0,15.0,26,0.00,,,0.01,VWS V14.01,2013-02-13 03:55:00,
2013-02-12 22:00:00,70.9,34.3,29.82,WNW,299,5.0,15.0,26,0.00,,,0.01,VWS V14.01,2013-02-13 04:00:00,
2013-02-12 22:05:00,70.9,34.3,29.82,WNW,299,5.0,15.0,26,0.00,,,0.01,VWS V14.01,2013-02-13 04:05:00,
2013-02-12 22:10:00,70.9,34.3,29.82,WNW,299,5.0,15.0,26,0.00,,,0.01,VWS V14.01,2013-02-13 04:10:00,
2013-02-12 22:15:00,70.9,34.3,29.82,WNW,299,5.0,15.0,26,0.00,,,0.01,VWS V14.01,2013-02-13 04:15:00,
2013-02-12 22:20:00,70.9,34.3,29.82,WNW,299,5.0,15.0,26,0.00,,,0.01,VWS V14.01,2013-02-13 04:20:00,
2013-02-12 22:25:00,70.9,34.3,29.82,WNW,299,5.0,15.0,26,0.00,,,0.01,VWS V14.01,2013-02-13 04:25:00,
2013-02-12 22:30:00,70.9,34.3,29.82,WNW,299,5.0,15.0,26,0.00,,,0.01,VWS V14.01,2013-02-13 04:30:00,
2013-02-12 22:35:00,70.9,34.3,29.82,WNW,299,5.0,15.0,26,0.00,,,0.01,VWS V14.01,2013-02-13 04:35:00,
2013-02-12 22:40:00,70.9,34.3,29.82,WNW,299,5.0,15.0,26,0.00,,,0.01,VWS V14.01,2013-02-13 04:40:00,
2013-02-12 22:45:00,70.9,34.3,29.82,WNW,299,5.0,15.0,26,0.00,,,0.01,VWS V14.01,2013-02-13 04:45:00,
2013-02-12 22:50:00,70.9,34.3,29.82,WNW,299,5.0,15.0,26,0.00,,,0.01,VWS V14.01,2013-02-13 04:50:00,
2013-02-12 22:55:00,70.9,34.3,29.82,WNW,299,5.0,15.0,26,0.00,,,0.01,VWS V14.01,2013-02-13 04:55:00,
2013-02-12 23:00:00,70.9,34.3,29.82,WNW,299,5.0,15.0,26,0.00,,,0.01,VWS V14.01,2013-02-13 05:00:00,
2013-02-12 23:05:00,70.9,34.3,29.82,WNW,299,5.0,15.0,26,0.00,,,0.01,VWS V14.01,2013-02-13 05:05:00,
2013-02-12 23:10:00,70.9,34.3,29.82,WNW,299,5.0,15.0,26,0.00,,,0.01,VWS V14.01,2013-02-13 05:10:00,
2013-02-12 23:15:00,70.9,34.3,29.82,WNW,299,5.0,15.0,26,0.00,,,0.01,VWS V14.01,2013-02-13 05:15:00,
2013-02-12 23:20:00,70.9,34.3,29.82,WNW,299,5.0,15.0,26,0.00,,,0.01,VWS V14.01,2013-02-13 05:20:00,
2013-02-12 23:25:00,70.9,34.3,29.82,WNW,299,5.0,15.0,26,0.00,,,0.01,VWS V14.01,2013-02-13 05:25:00,
2013-02-12 23:30:00,70.9,34.3,29.82,WNW,299,5.0,15.0,26,0.00,,,0.01,VWS V14.01,2013-02-13 05:30:00,
2013-02-12 23:35:00,70.9,34.3,29.82,WNW,299,5.0,15.0,26,0.00,,,0.01,VWS V14.01,2013-02-13 05:35:00,
2013-02-12 23:40:00,70.9,34.3,29.82,WNW,299,5.0,15.0,26,0.00,,,0.01,VWS V14.01,2013-02-13 05:40:00,
2013-02-12 23:45:00,70.9,34.3,29.82,WNW,299,5.0,15.0,26,0.00,,,0.01,VWS V14.01,2013-02-13 05:45:00,
2013-02-12 23:50:00,70.9,34.3,29.82,WNW,299,5.0,15.0,26,0.00,,,0.01,VWS V14.01,2013-02-13 05:50:00,
2013-02-12 23:55:00,70.9,34.3,29.82,WNW,299,5.0,15.0,26,0.00,,,0.01,VWS V14.01,2013-02-13 05:55:00,